Weather History for Toledo Metcalf, OH

Change the Weather History Date:

Tuesday, February 5, 2013

  Actual Average (KTOL) Record (KTOL)
Temperature  
Mean Temperature 22 °F 26 °F  
Max Temperature 28 °F 34 °F 56 °F (1938)
Min Temperature 17 °F 19 °F -13 °F (1918)
Degree Days  
Heating Degree Days 42 39  
Month to date heating degree days 195  
Since 1 July heating degree days 3744  
Cooling Degree Days 0 0  
Month to date cooling degree days 0  
Year to date cooling degree days 0  
Moisture  
Dew Point 20 °F    
Average Humidity 88    
Maximum Humidity 93    
Minimum Humidity 75    
Precipitation  
Precipitation 0.02 in 0.06 in 1.44 in (2008)
Month to date precipitation 0.33  
Year to date precipitation 2.38  
Snow  
Snow 0.00 in 0.40 in - ()
Month to date snowfall 1.9  
Since 1 July snowfall 23.0  
Snow Depth -    
Sea Level Pressure  
Sea Level Pressure 29.92 in    
Wind  
Wind Speed 4 mph (SSW)    
Max Wind Speed 13 mph    
Max Gust Speed -    
Visibility 4 miles    
Events Fog , Snow    
T = Trace of Precipitation, MM = Missing Value Source: NWS Daily Summary

Daily Weather History Graph

Daily Weather History Graph

Search for Another Location

Airport:

Trip Planner

Search our weather history database for the weather conditions in past years. The results will help you decide how hot, cold, wet, or windy it might be!

Date:

Astronomy

Feb. 05, 2013 Rise Set
Actual Time 7:41 AM EST 5:55 PM EST
Civil Twilight 7:12 AM EST 6:24 PM EST
Nautical Twilight 6:39 AM EST 6:57 PM EST
Astronomical Twilight 6:06 AM EST 7:29 PM EST
Moon 3:23 AM EST (2/5) 1:10 PM EST (2/5)
Length of Visible Light 11h 12m
Length of Day
10h 14m
Waning Crescent, 27% of the Moon is Illuminated
Feb 5
Waning Crescent
Feb 10
New
Feb 17
First Quarter
Feb 25
Full
Mar 4
Last Quarter

Hourly Weather History & Observations

Time (EST) Temp. Windchill Dew Point Humidity Pressure Visibility Wind Dir Wind Speed Gust Speed Precip Events Conditions
12:16 AM 21.2 °F 14.9 °F 19.4 °F 93% 29.92 in 7.0 mi North 4.6 mph - N/A   Overcast
12:36 AM 21.2 °F 13.6 °F 17.6 °F 86% 29.93 in 7.0 mi NNE 5.8 mph - N/A   Overcast
12:53 AM 21.9 °F 14.5 °F 18.0 °F 85% 29.95 in 7.0 mi NNE 5.8 mph - N/A   Overcast
1:07 AM 21.2 °F 13.6 °F 17.6 °F 86% 29.92 in 6.0 mi NE 5.8 mph - N/A   Overcast
1:31 AM 21.2 °F 16.4 °F 17.6 °F 86% 29.91 in 7.0 mi NNE 3.5 mph - N/A   Overcast
1:53 AM 21.9 °F - 18.0 °F 85% 29.93 in 7.0 mi Calm Calm - N/A   Overcast
2:28 AM 21.2 °F 16.4 °F 17.6 °F 86% 29.92 in 7.0 mi NNE 3.5 mph - N/A   Overcast
2:40 AM 21.2 °F - 17.6 °F 86% 29.91 in 7.0 mi Calm Calm - N/A   Overcast
2:53 AM 21.0 °F 16.2 °F 18.0 °F 88% 29.94 in 7.0 mi ENE 3.5 mph - N/A   Overcast
3:53 AM 19.9 °F - 18.0 °F 92% 29.96 in 6.0 mi Calm Calm - N/A   Overcast
3:59 AM 19.4 °F - 17.6 °F 93% 29.93 in 6.0 mi Calm Calm - N/A   Overcast
4:29 AM 19.4 °F - 17.6 °F 93% 29.92 in 4.0 mi Calm Calm - 0.00 in Snow Light Snow
4:53 AM 19.9 °F - 17.1 °F 89% 29.95 in 5.0 mi Calm Calm - 0.00 in   Overcast
5:29 AM 19.4 °F - 17.6 °F 93% 29.90 in 6.0 mi Calm Calm - N/A   Overcast
5:39 AM 19.4 °F - 17.6 °F 93% 29.91 in 6.0 mi Calm Calm - N/A   Overcast
5:53 AM 19.0 °F - 16.0 °F 88% 29.94 in 7.0 mi Calm Calm - N/A   Overcast
6:07 AM 17.6 °F - 15.8 °F 93% 29.92 in 6.0 mi Calm Calm - N/A   Mostly Cloudy
6:53 AM 18.0 °F - 15.1 °F 88% 29.94 in 3.0 mi Calm Calm - N/A   Overcast
7:53 AM 18.0 °F - 16.0 °F 92% 29.97 in 4.0 mi Calm Calm - N/A   Overcast
8:53 AM 19.9 °F - 17.1 °F 89% 29.96 in 4.0 mi Calm Calm - N/A   Overcast
9:40 AM 19.4 °F - 17.6 °F 93% 29.95 in 5.0 mi Calm Calm - N/A   Overcast
9:53 AM 19.9 °F 14.9 °F 18.0 °F 92% 29.98 in 5.0 mi South 3.5 mph - N/A   Overcast
10:01 AM 21.2 °F - 17.6 °F 86% 29.94 in 5.0 mi Calm Calm - N/A   Mostly Cloudy
10:15 AM 21.2 °F 16.4 °F 17.6 °F 86% 29.94 in 5.0 mi SSE 3.5 mph - N/A   Scattered Clouds
10:53 AM 21.9 °F 15.7 °F 19.0 °F 89% 29.96 in 5.0 mi South 4.6 mph - N/A   Partly Cloudy
11:06 AM 21.2 °F 12.6 °F 19.4 °F 93% 29.93 in 4.0 mi South 6.9 mph - N/A   Mostly Cloudy
11:31 AM 23.0 °F 13.9 °F 19.4 °F 86% 29.92 in 5.0 mi South 8.1 mph - N/A   Scattered Clouds
11:53 AM 21.9 °F 12.5 °F 19.0 °F 89% 29.93 in 5.0 mi South 8.1 mph - N/A   Partly Cloudy
12:53 PM 23.0 °F 12.4 °F 19.0 °F 85% 29.91 in 5.0 mi SW 10.4 mph - N/A   Partly Cloudy
1:53 PM 25.0 °F 16.3 °F 19.9 °F 81% 29.89 in 6.0 mi SSW 8.1 mph - N/A   Haze
2:53 PM 26.1 °F 16.8 °F 19.0 °F 75% 29.88 in 8.0 mi SW 9.2 mph - N/A   Overcast
3:53 PM 26.1 °F 16.8 °F 19.0 °F 75% 29.87 in 7.0 mi SSW 9.2 mph - N/A   Overcast
4:53 PM 27.0 °F 18.7 °F 19.9 °F 75% 29.86 in 4.0 mi SSW 8.1 mph - N/A   Haze
5:53 PM 28.0 °F 21.7 °F 21.0 °F 75% 29.88 in 4.0 mi SSW 5.8 mph - N/A   Haze
6:05 PM 26.6 °F 18.2 °F 21.2 °F 80% 29.86 in 1.8 mi SW 8.1 mph - 0.00 in Snow Light Snow
6:08 PM 26.6 °F 15.7 °F 21.2 °F 80% 29.87 in 1.0 mi SW 12.7 mph - 0.00 in Snow Light Snow
6:15 PM 26.6 °F 18.2 °F 23.0 °F 86% 29.87 in 0.5 mi SW 8.1 mph - 0.00 in Fog , Snow Snow
6:29 PM 26.6 °F 17.5 °F 24.8 °F 93% 29.87 in 0.5 mi SW 9.2 mph - 0.01 in Fog , Snow Snow
6:36 PM 26.6 °F 18.2 °F 24.8 °F 93% 29.87 in 0.5 mi SW 8.1 mph - 0.01 in Fog , Snow Snow
6:53 PM 26.1 °F 16.8 °F 24.1 °F 92% 29.91 in 0.8 mi SW 9.2 mph - 0.02 in Snow Light Snow
7:04 PM 26.6 °F 18.2 °F 24.8 °F 93% 29.88 in 1.0 mi SW 8.1 mph - 0.00 in Snow Light Snow
7:12 PM 26.6 °F 18.2 °F 24.8 °F 93% 29.88 in 0.8 mi SW 8.1 mph - 0.00 in Snow Light Snow
7:17 PM 26.6 °F 18.2 °F 24.8 °F 93% 29.89 in 1.0 mi SW 8.1 mph - 0.00 in Snow Light Snow
7:26 PM 26.6 °F 19.1 °F 23.0 °F 86% 29.89 in 1.8 mi SW 6.9 mph - 0.00 in Snow Light Snow
7:45 PM 24.8 °F 17.9 °F 23.0 °F 93% 29.89 in 2.5 mi SSW 5.8 mph - 0.00 in Snow Light Snow
7:49 PM 24.8 °F 19.1 °F 21.2 °F 86% 29.89 in 3.0 mi SW 4.6 mph - 0.00 in   Mostly Cloudy
7:53 PM 25.0 °F 19.3 °F 23.0 °F 92% 29.92 in 4.0 mi SW 4.6 mph - 0.00 in   Overcast
8:02 PM 24.8 °F 19.1 °F 23.0 °F 93% 29.90 in 4.0 mi SW 4.6 mph - N/A   Overcast
8:53 PM 26.1 °F 17.6 °F 23.0 °F 88% 29.94 in 4.0 mi SSW 8.1 mph - N/A   Overcast
9:12 PM 26.6 °F 20.0 °F 24.8 °F 93% 29.92 in 4.0 mi SW 5.8 mph - N/A   Overcast
9:28 PM 26.6 °F 19.1 °F 24.8 °F 93% 29.92 in 4.0 mi SW 6.9 mph - N/A   Overcast
9:53 PM 27.0 °F 19.5 °F 24.1 °F 89% 29.96 in 4.0 mi SW 6.9 mph - N/A   Overcast
10:50 PM 28.4 °F 20.4 °F 24.8 °F 86% 29.94 in 4.0 mi SW 8.1 mph - N/A   Overcast
10:53 PM 28.0 °F 20.0 °F 25.0 °F 88% 29.97 in 4.0 mi WSW 8.1 mph - N/A   Overcast
11:53 PM 28.9 °F 21.9 °F 25.0 °F 85% 29.99 in 5.0 mi WSW 6.9 mph - N/A   Overcast